| time (UTC) | temp F | wind direction | speed MPH | gust MPH | rain 1hr in | rain 24hr in | rain mn in | humidity % | barometer mb |
| 20260905124504 | 73 | 0 | 0.0 | 0.0 | 0.00 | 0.00 | 0.00 | 89 | 1014.8 |
| 20260905124025 | 73 | 170 | 0.0 | 1.0 | 0.00 | 0.00 | 0.00 | 89 | 1014.8 |
| 20260905123504 | 74 | 170 | 0.0 | 1.0 | 0.00 | 0.00 | 0.00 | 89 | 1014.8 |
| 20260905123004 | 74 | 170 | 0.0 | 1.0 | 0.00 | 0.00 | 0.00 | 89 | 1014.9 |
| 20260905122504 | 74 | 170 | 0.0 | 1.0 | 0.00 | 0.00 | 0.00 | 89 | 1014.9 |
| 20260905122004 | 74 | 170 | 0.0 | 1.0 | 0.00 | 0.00 | 0.00 | 89 | 1014.8 |
| 20260905121525 | 74 | 170 | 1.0 | 1.0 | 0.00 | 0.00 | 0.00 | 88 | 1014.9 |
| 20260905121025 | 74 | 170 | 1.0 | 1.0 | 0.00 | 0.00 | 0.00 | 88 | 1014.8 |
| 20260905120504 | 74 | 170 | 0.0 | 1.0 | 0.00 | 0.00 | 0.00 | 89 | 1014.7 |
| 20260905120004 | 74 | 0 | 0.0 | 0.0 | 0.00 | 0.00 | 0.00 | 89 | 1014.6 |
| 20260905115504 | 74 | 0 | 0.0 | 0.0 | 0.00 | 0.00 | 0.00 | 88 | 1014.5 |
| 20260905115004 | 74 | 0 | 0.0 | 0.0 | 0.00 | 0.00 | 0.00 | 88 | 1014.7 |
| 20260905114504 | 74 | 170 | 0.0 | 1.0 | 0.00 | 0.00 | 0.00 | 88 | 1014.6 |
| 20260905114004 | 75 | 170 | 0.0 | 1.0 | 0.00 | 0.00 | 0.00 | 88 | 1014.5 |
| 20260905113504 | 75 | 0 | 0.0 | 0.0 | 0.00 | 0.00 | 0.00 | 88 | 1014.5 |
| 20260905113004 | 75 | 0 | 0.0 | 0.0 | 0.00 | 0.00 | 0.00 | 88 | 1014.4 |
| 20260905112504 | 75 | 0 | 0.0 | 0.0 | 0.00 | 0.00 | 0.00 | 88 | 1014.4 |
| 20260905112004 | 75 | 0 | 0.0 | 0.0 | 0.00 | 0.00 | 0.00 | 88 | 1014.4 |
| 20260905111525 | 75 | 0 | 0.0 | 0.0 | 0.00 | 0.00 | 0.00 | 88 | 1014.3 |
| 20260905111004 | 76 | 0 | 0.0 | 0.0 | 0.00 | 0.00 | 0.00 | 88 | 1014.2 |
| 20260905110504 | 76 | 0 | 0.0 | 0.0 | 0.00 | 0.00 | 0.00 | 88 | 1014.2 |
| 20260905110004 | 76 | 0 | 0.0 | 0.0 | 0.00 | 0.00 | 0.00 | 88 | 1014.2 |
| 20260905105504 | 76 | 170 | 0.0 | 1.0 | 0.00 | 0.00 | 0.00 | 88 | 1014.2 |
| 20260905105004 | 76 | 170 | 0.0 | 1.0 | 0.00 | 0.00 | 0.00 | 88 | 1014.2 |
| 20260905104525 | 76 | 0 | 0.0 | 0.0 | 0.00 | 0.00 | 0.00 | 88 | 1014.1 |
| 20260905104004 | 76 | 170 | 0.0 | 1.0 | 0.00 | 0.00 | 0.00 | 88 | 1014.0 |
| 20260905103525 | 76 | 170 | 0.0 | 1.0 | 0.00 | 0.00 | 0.00 | 88 | 1014.0 |
| 20260905103004 | 76 | 170 | 0.0 | 1.0 | 0.00 | 0.00 | 0.00 | 88 | 1014.1 |
| 20260905102504 | 76 | 170 | 0.0 | 1.0 | 0.00 | 0.00 | 0.00 | 88 | 1014.0 |
| 20260905102004 | 77 | 170 | 0.0 | 1.0 | 0.00 | 0.00 | 0.00 | 88 | 1014.0 |
| 20260905101504 | 77 | 170 | 0.0 | 1.0 | 0.00 | 0.00 | 0.00 | 87 | 1014.0 |
| 20260905101004 | 77 | 170 | 1.0 | 2.0 | 0.00 | 0.00 | 0.00 | 87 | 1014.0 |
| 20260905100504 | 77 | 170 | 0.0 | 2.0 | 0.00 | 0.00 | 0.00 | 87 | 1014.0 |
| 20260905100004 | 77 | 170 | 1.0 | 2.0 | 0.00 | 0.00 | 0.00 | 87 | 1014.0 |
| 20260905095504 | 77 | 170 | 1.0 | 2.0 | 0.00 | 0.00 | 0.00 | 87 | 1013.8 |
| 20260905095004 | 77 | 170 | 0.0 | 2.0 | 0.00 | 0.00 | 0.00 | 87 | 1013.9 |
| 20260905094525 | 78 | 0 | 0.0 | 0.0 | 0.00 | 0.00 | 0.00 | 87 | 1013.8 |
| 20260905094003 | 78 | 170 | 0.0 | 1.0 | 0.00 | 0.00 | 0.00 | 87 | 1013.7 |
| 20260905093525 | 78 | 170 | 0.0 | 1.0 | 0.00 | 0.00 | 0.00 | 87 | 1013.6 |
| 20260905093025 | 78 | 170 | 0.0 | 1.0 | 0.00 | 0.00 | 0.00 | 87 | 1013.7 |
| 20260905092504 | 78 | 170 | 0.0 | 2.0 | 0.00 | 0.00 | 0.00 | 87 | 1013.7 |
| 20260905092025 | 78 | 170 | 1.0 | 2.0 | 0.00 | 0.00 | 0.00 | 87 | 1013.8 |
| 20260905091504 | 78 | 170 | 1.0 | 4.0 | 0.00 | 0.00 | 0.00 | 87 | 1014.0 |
| 20260905091025 | 78 | 170 | 1.0 | 4.0 | 0.00 | 0.00 | 0.00 | 87 | 1013.9 |
| 20260905090504 | 78 | 170 | 1.0 | 4.0 | 0.00 | 0.00 | 0.00 | 87 | 1013.9 |
| 20260905090004 | 78 | 170 | 1.0 | 4.0 | 0.00 | 0.00 | 0.00 | 87 | 1013.9 |
| 20260905085504 | 78 | 170 | 1.0 | 4.0 | 0.00 | 0.00 | 0.00 | 87 | 1013.8 |
| 20260905085004 | 78 | 170 | 1.0 | 4.0 | 0.00 | 0.00 | 0.00 | 87 | 1013.8 |
| 20260905084504 | 78 | 170 | 2.0 | 4.0 | 0.00 | 0.00 | 0.00 | 87 | 1013.9 |
| 20260905084004 | 78 | 170 | 2.0 | 4.0 | 0.00 | 0.00 | 0.00 | 87 | 1014.0 |
| 20260905083504 | 79 | 170 | 2.0 | 5.0 | 0.00 | 0.00 | 0.00 | 87 | 1014.0 |
| 20260905083003 | 79 | 170 | 2.0 | 5.0 | 0.00 | 0.00 | 0.00 | 87 | 1014.1 |
| 20260905082503 | 79 | 170 | 2.0 | 4.0 | 0.00 | 0.00 | 0.00 | 86 | 1014.0 |
| 20260905082025 | 79 | 170 | 2.0 | 4.0 | 0.00 | 0.00 | 0.00 | 86 | 1014.1 |
| 20260905081524 | 79 | 168 | 2.0 | 5.0 | 0.00 | 0.00 | 0.00 | 86 | 1014.1 |
| 20260905081004 | 79 | 166 | 2.0 | 5.0 | 0.00 | 0.00 | 0.00 | 86 | 1014.2 |
| 20260905080525 | 79 | 165 | 2.0 | 4.0 | 0.00 | 0.00 | 0.00 | 86 | 1014.2 |
| 20260905080025 | 79 | 165 | 2.0 | 5.0 | 0.00 | 0.00 | 0.00 | 86 | 1014.3 |
| 20260905075503 | 79 | 165 | 2.0 | 5.0 | 0.00 | 0.00 | 0.00 | 86 | 1014.3 |
| 20260905075003 | 79 | 164 | 2.0 | 5.0 | 0.00 | 0.00 | 0.00 | 85 | 1014.5 |
| 20260905074504 | 79 | 158 | 2.0 | 6.0 | 0.00 | 0.00 | 0.00 | 85 | 1014.4 |
| 20260905074004 | 79 | 153 | 2.0 | 6.0 | 0.00 | 0.00 | 0.00 | 85 | 1014.4 |
| 20260905073525 | 79 | 154 | 2.0 | 6.0 | 0.00 | 0.00 | 0.00 | 84 | 1014.4 |
| 20260905073024 | 79 | 164 | 2.0 | 6.0 | 0.00 | 0.00 | 0.00 | 84 | 1014.5 |
| 20260905072504 | 80 | 171 | 4.0 | 6.0 | 0.00 | 0.00 | 0.00 | 84 | 1014.4 |
| 20260905072004 | 80 | 169 | 2.0 | 5.0 | 0.00 | 0.00 | 0.00 | 84 | 1014.6 |
| 20260905071504 | 80 | 170 | 2.0 | 5.0 | 0.00 | 0.00 | 0.00 | 84 | 1014.5 |
| 20260905071004 | 80 | 172 | 2.0 | 5.0 | 0.00 | 0.00 | 0.00 | 84 | 1014.6 |
| 20260905070525 | 80 | 174 | 2.0 | 5.0 | 0.00 | 0.00 | 0.00 | 83 | 1014.6 |
| 20260905070004 | 80 | 175 | 4.0 | 5.0 | 0.00 | 0.00 | 0.00 | 83 | 1014.5 |
| 20260905065504 | 80 | 174 | 4.0 | 5.0 | 0.00 | 0.00 | 0.00 | 83 | 1014.6 |
| 20260905065004 | 80 | 171 | 4.0 | 6.0 | 0.00 | 0.00 | 0.00 | 83 | 1014.6 |
| 20260905064503 | 80 | 161 | 4.0 | 7.0 | 0.00 | 0.00 | 0.00 | 83 | 1014.6 |
| 20260905064004 | 80 | 150 | 2.0 | 7.0 | 0.00 | 0.00 | 0.00 | 82 | 1014.6 |
| 20260905063524 | 80 | 152 | 2.0 | 7.0 | 0.00 | 0.00 | 0.00 | 82 | 1014.7 |
| 20260905063003 | 80 | 155 | 2.0 | 7.0 | 0.00 | 0.00 | 0.00 | 82 | 1014.7 |
| 20260905062503 | 80 | 148 | 2.0 | 5.0 | 0.00 | 0.00 | 0.00 | 81 | 1014.7 |
| 20260905062003 | 80 | 149 | 2.0 | 6.0 | 0.00 | 0.00 | 0.00 | 81 | 1014.8 |
| 20260905061503 | 80 | 159 | 2.0 | 6.0 | 0.00 | 0.00 | 0.00 | 81 | 1014.7 |
| 20260905061003 | 81 | 146 | 2.0 | 5.0 | 0.00 | 0.00 | 0.00 | 81 | 1014.8 |
| 20260905060503 | 81 | 132 | 2.0 | 6.0 | 0.00 | 0.00 | 0.00 | 80 | 1014.6 |
| 20260905060025 | 81 | 136 | 2.0 | 6.0 | 0.00 | 0.00 | 0.00 | 80 | 1014.6 |
| 20260905055503 | 81 | 141 | 4.0 | 6.0 | 0.00 | 0.00 | 0.00 | 80 | 1014.7 |
| 20260905055004 | 81 | 134 | 4.0 | 7.0 | 0.00 | 0.00 | 0.00 | 80 | 1014.7 |
| 20260905054503 | 81 | 138 | 4.0 | 7.0 | 0.00 | 0.00 | 0.00 | 80 | 1014.8 |
| 20260905054024 | 81 | 148 | 4.0 | 8.0 | 0.00 | 0.00 | 0.00 | 80 | 1014.9 |
| 20260905053503 | 81 | 147 | 4.0 | 8.0 | 0.00 | 0.00 | 0.00 | 79 | 1014.6 |
| 20260905053003 | 81 | 148 | 2.0 | 8.0 | 0.00 | 0.00 | 0.00 | 79 | 1014.8 |
| 20260905052525 | 81 | 147 | 4.0 | 6.0 | 0.00 | 0.00 | 0.00 | 79 | 1014.8 |
| 20260905052003 | 81 | 135 | 4.0 | 7.0 | 0.00 | 0.00 | 0.00 | 79 | 1014.9 |
| 20260905051503 | 81 | 143 | 4.0 | 8.0 | 0.00 | 0.00 | 0.00 | 79 | 1014.9 |
| 20260905051025 | 81 | 154 | 5.0 | 10.0 | 0.00 | 0.00 | 0.00 | 79 | 1014.9 |
| 20260905050503 | 81 | 156 | 5.0 | 10.0 | 0.00 | 0.00 | 0.00 | 79 | 1014.9 |
| 20260905050004 | 82 | 152 | 4.0 | 8.0 | 0.00 | 0.00 | 0.00 | 78 | 1014.8 |
| 20260905045503 | 82 | 142 | 4.0 | 7.0 | 0.00 | 0.00 | 0.00 | 78 | 1014.8 |
| 20260905045004 | 82 | 133 | 5.0 | 10.0 | 0.00 | 0.00 | 0.00 | 78 | 1014.9 |
| 20260905044503 | 82 | 135 | 4.0 | 10.0 | 0.00 | 0.00 | 0.00 | 78 | 1014.8 |
| 20260905044003 | 82 | 142 | 4.0 | 10.0 | 0.00 | 0.00 | 0.00 | 77 | 1014.8 |
| 20260905043524 | 82 | 135 | 4.0 | 10.0 | 0.00 | 0.00 | 0.00 | 77 | 1014.8 |
| 20260905043024 | 82 | 125 | 4.0 | 10.0 | 0.00 | 0.00 | 0.00 | 77 | 1014.8 |
| 20260905042503 | 82 | 125 | 4.0 | 8.0 | 0.00 | 0.00 | 0.00 | 76 | 1014.7 |
| 20260905042003 | 82 | 125 | 4.0 | 8.0 | 0.00 | 0.00 | 0.00 | 76 | 1014.7 |
| 20260905041503 | 82 | 134 | 4.0 | 7.0 | 0.00 | 0.00 | 0.00 | 76 | 1014.7 |
| 20260905041003 | 82 | 139 | 4.0 | 7.0 | 0.00 | 0.00 | 0.00 | 75 | 1014.8 |
| 20260905040503 | 82 | 123 | 4.0 | 10.0 | 0.00 | 0.00 | 0.00 | 75 | 1014.8 |
| 20260905040003 | 82 | 113 | 4.0 | 10.0 | 0.00 | 0.00 | 0.00 | 75 | 1014.8 |
| 20260905035503 | 83 | 132 | 4.0 | 6.0 | 0.00 | 0.00 | 0.00 | 74 | 1014.9 |
| 20260905035003 | 83 | 137 | 2.0 | 6.0 | 0.00 | 0.00 | 0.00 | 74 | 1014.8 |
| 20260905034503 | 83 | 120 | 2.0 | 6.0 | 0.00 | 0.00 | 0.00 | 74 | 1014.8 |
| 20260905034003 | 83 | 118 | 2.0 | 6.0 | 0.00 | 0.00 | 0.00 | 73 | 1014.7 |
| 20260905033503 | 83 | 117 | 4.0 | 8.0 | 0.00 | 0.00 | 0.00 | 73 | 1014.6 |
| 20260905033024 | 83 | 118 | 4.0 | 8.0 | 0.00 | 0.00 | 0.00 | 73 | 1014.6 |
| 20260905032503 | 83 | 121 | 4.0 | 8.0 | 0.00 | 0.00 | 0.00 | 73 | 1014.6 |
| 20260905032003 | 83 | 123 | 4.0 | 7.0 | 0.00 | 0.00 | 0.00 | 72 | 1014.6 |
| 20260905031524 | 83 | 119 | 4.0 | 8.0 | 0.00 | 0.00 | 0.00 | 72 | 1014.6 |
| 20260905031004 | 83 | 119 | 4.0 | 10.0 | 0.00 | 0.00 | 0.00 | 72 | 1014.5 |
| 20260905030503 | 83 | 122 | 4.0 | 10.0 | 0.00 | 0.00 | 0.00 | 72 | 1014.4 |
| 20260905030003 | 83 | 112 | 4.0 | 10.0 | 0.00 | 0.00 | 0.00 | 71 | 1014.4 |
| 20260905025503 | 83 | 109 | 4.0 | 10.0 | 0.00 | 0.00 | 0.00 | 71 | 1014.3 |
| 20260905025003 | 83 | 114 | 5.0 | 10.0 | 0.00 | 0.00 | 0.00 | 70 | 1014.2 |
| 20260905024503 | 83 | 109 | 5.0 | 11.0 | 0.00 | 0.00 | 0.00 | 70 | 1014.2 |
| 20260905024003 | 84 | 104 | 4.0 | 11.0 | 0.00 | 0.00 | 0.00 | 69 | 1014.2 |
| 20260905023524 | 84 | 102 | 2.0 | 6.0 | 0.00 | 0.00 | 0.00 | 68 | 1014.2 |
| 20260905023024 | 84 | 106 | 2.0 | 5.0 | 0.00 | 0.00 | 0.00 | 68 | 1014.1 |
| 20260905022503 | 84 | 106 | 1.0 | 4.0 | 0.00 | 0.00 | 0.00 | 67 | 1014.1 |
| 20260905022024 | 84 | 106 | 1.0 | 4.0 | 0.00 | 0.00 | 0.00 | 67 | 1014.1 |
| 20260905021503 | 85 | 106 | 1.0 | 4.0 | 0.00 | 0.00 | 0.00 | 66 | 1013.8 |
| 20260905021003 | 85 | 106 | 1.0 | 4.0 | 0.00 | 0.00 | 0.00 | 66 | 1013.8 |
| 20260905020503 | 85 | 106 | 1.0 | 4.0 | 0.00 | 0.00 | 0.00 | 66 | 1013.7 |
| 20260905020003 | 85 | 104 | 1.0 | 5.0 | 0.00 | 0.00 | 0.00 | 66 | 1013.6 |
| 20260905015503 | 85 | 100 | 1.0 | 5.0 | 0.00 | 0.00 | 0.00 | 66 | 1013.7 |
| 20260905015024 | 86 | 101 | 1.0 | 5.0 | 0.00 | 0.00 | 0.00 | 65 | 1013.7 |
| 20260905014503 | 86 | 107 | 1.0 | 5.0 | 0.00 | 0.00 | 0.00 | 64 | 1013.6 |
| 20260905014003 | 86 | 114 | 1.0 | 5.0 | 0.00 | 0.00 | 0.00 | 64 | 1013.6 |
| 20260905013524 | 86 | 117 | 2.0 | 5.0 | 0.00 | 0.00 | 0.00 | 63 | 1013.6 |
| 20260905013003 | 86 | 117 | 2.0 | 5.0 | 0.00 | 0.00 | 0.00 | 63 | 1013.6 |
| 20260905012503 | 87 | 116 | 2.0 | 6.0 | 0.00 | 0.00 | 0.00 | 63 | 1013.5 |
| 20260905012003 | 87 | 114 | 4.0 | 6.0 | 0.00 | 0.00 | 0.00 | 62 | 1013.6 |
| 20260905011503 | 87 | 112 | 4.0 | 8.0 | 0.00 | 0.00 | 0.00 | 62 | 1013.4 |
| 20260905011003 | 87 | 116 | 4.0 | 8.0 | 0.00 | 0.00 | 0.00 | 62 | 1013.4 |
| 20260905010503 | 88 | 121 | 4.0 | 12.0 | 0.00 | 0.00 | 0.00 | 62 | 1013.4 |
| 20260905010003 | 88 | 119 | 5.0 | 12.0 | 0.00 | 0.00 | 0.00 | 62 | 1013.3 |
| 20260905005503 | 88 | 117 | 5.0 | 11.0 | 0.00 | 0.00 | 0.00 | 61 | 1013.3 |
| 20260905005025 | 88 | 123 | 5.0 | 11.0 | 0.00 | 0.00 | 0.00 | 61 | 1013.4 |
| 20260905004504 | 89 | 118 | 6.0 | 13.0 | 0.00 | 0.00 | 0.00 | 60 | 1013.2 |
| 20260905004004 | 89 | 118 | 6.0 | 13.0 | 0.00 | 0.00 | 0.00 | 60 | 1013.2 |
| 20260905003504 | 90 | 127 | 6.0 | 13.0 | 0.00 | 0.00 | 0.00 | 60 | 1013.1 |
| 20260905003004 | 90 | 120 | 7.0 | 13.0 | 0.00 | 0.00 | 0.00 | 60 | 1013.1 |
| 20260905002504 | 90 | 116 | 6.0 | 13.0 | 0.00 | 0.00 | 0.00 | 59 | 1013.1 |
| 20260905002004 | 90 | 118 | 7.0 | 13.0 | 0.00 | 0.00 | 0.00 | 58 | 1013.0 |
| 20260905001505 | 91 | 118 | 8.0 | 14.0 | 0.00 | 0.00 | 0.00 | 58 | 1012.9 |
| 20260905001004 | 91 | 117 | 8.0 | 14.0 | 0.00 | 0.00 | 0.00 | 57 | 1012.8 |
| 20260905000504 | 91 | 118 | 8.0 | 16.0 | 0.00 | 0.00 | 0.00 | 57 | 1012.8 |
| 20260905000004 | 92 | 126 | 8.0 | 16.0 | 0.00 | 0.00 | 0.00 | 56 | 1012.7 |
| 20260904235504 | 92 | 124 | 8.0 | 18.0 | 0.00 | 0.00 | 0.00 | 55 | 1012.7 |
| 20260904235004 | 92 | 119 | 8.0 | 18.0 | 0.00 | 0.00 | 0.00 | 54 | 1012.7 |
| 20260904234504 | 93 | 123 | 7.0 | 16.0 | 0.00 | 0.00 | 0.00 | 54 | 1012.6 |
| 20260904234025 | 93 | 138 | 7.0 | 14.0 | 0.00 | 0.00 | 0.00 | 52 | 1012.6 |
| 20260904233504 | 94 | 135 | 5.0 | 12.0 | 0.00 | 0.00 | 0.00 | 50 | 1012.5 |
| 20260904233004 | 94 | 122 | 6.0 | 14.0 | 0.00 | 0.00 | 0.00 | 48 | 1012.4 |
| 20260904232504 | 94 | 136 | 6.0 | 14.0 | 0.00 | 0.00 | 0.00 | 46 | 1012.6 |
| 20260904232004 | 95 | 151 | 5.0 | 11.0 | 0.00 | 0.00 | 0.00 | 45 | 1012.5 |
| 20260904231504 | 95 | 132 | 5.0 | 13.0 | 0.00 | 0.00 | 0.00 | 43 | 1012.5 |
| 20260904231004 | 95 | 115 | 6.0 | 13.0 | 0.00 | 0.00 | 0.00 | 43 | 1012.6 |
| 20260904230504 | 96 | 133 | 6.0 | 13.0 | 0.00 | 0.00 | 0.00 | 42 | 1012.7 |
| 20260904230004 | 96 | 164 | 5.0 | 11.0 | 0.00 | 0.00 | 0.00 | 42 | 1012.8 |
| 20260904225504 | 96 | 167 | 5.0 | 12.0 | 0.00 | 0.00 | 0.00 | 41 | 1012.8 |
| 20260904225004 | 96 | 177 | 5.0 | 12.0 | 0.00 | 0.00 | 0.00 | 40 | 1012.7 |
| 20260904224504 | 96 | 180 | 5.0 | 8.0 | 0.00 | 0.00 | 0.00 | 40 | 1012.8 |
| 20260904224004 | 96 | 170 | 5.0 | 11.0 | 0.00 | 0.00 | 0.00 | 41 | 1012.9 |
| 20260904223525 | 96 | 177 | 6.0 | 14.0 | 0.00 | 0.00 | 0.00 | 40 | 1012.8 |
| 20260904223025 | 96 | 174 | 7.0 | 14.0 | 0.00 | 0.00 | 0.00 | 40 | 1012.9 |
| 20260904222525 | 96 | 171 | 7.0 | 14.0 | 0.00 | 0.00 | 0.00 | 42 | 1012.9 |
| 20260904222004 | 95 | 161 | 7.0 | 14.0 | 0.00 | 0.00 | 0.00 | 43 | 1012.9 |
| 20260904221504 | 95 | 146 | 6.0 | 14.0 | 0.00 | 0.00 | 0.00 | 43 | 1013.0 |
| 20260904221004 | 94 | 153 | 6.0 | 14.0 | 0.00 | 0.00 | 0.00 | 45 | 1012.9 |
| 20260904220504 | 94 | 171 | 7.0 | 14.0 | 0.00 | 0.00 | 0.00 | 47 | 1013.0 |
| 20260904220004 | 94 | 158 | 6.0 | 13.0 | 0.00 | 0.00 | 0.00 | 49 | 1013.0 |
| 20260904215504 | 94 | 131 | 5.0 | 12.0 | 0.00 | 0.00 | 0.00 | 52 | 1013.1 |
| 20260904215004 | 94 | 140 | 6.0 | 12.0 | 0.00 | 0.00 | 0.00 | 52 | 1013.0 |
| 20260904214525 | 95 | 143 | 6.0 | 13.0 | 0.00 | 0.00 | 0.00 | 50 | 1013.1 |
| 20260904214004 | 95 | 130 | 7.0 | 14.0 | 0.00 | 0.00 | 0.00 | 51 | 1013.2 |
| 20260904213504 | 95 | 132 | 7.0 | 14.0 | 0.00 | 0.00 | 0.00 | 52 | 1013.3 |
| 20260904213004 | 95 | 135 | 7.0 | 16.0 | 0.00 | 0.00 | 0.00 | 51 | 1013.4 |
| 20260904212525 | 94 | 137 | 6.0 | 16.0 | 0.00 | 0.00 | 0.00 | 53 | 1013.4 |
| 20260904212004 | 94 | 134 | 6.0 | 14.0 | 0.00 | 0.00 | 0.00 | 55 | 1013.4 |
| 20260904211504 | 93 | 134 | 7.0 | 13.0 | 0.00 | 0.00 | 0.00 | 56 | 1013.4 |
| 20260904211003 | 93 | 152 | 7.0 | 13.0 | 0.00 | 0.00 | 0.00 | 56 | 1013.5 |
| 20260904210504 | 93 | 150 | 7.0 | 13.0 | 0.00 | 0.00 | 0.00 | 55 | 1013.6 |
| 20260904210004 | 93 | 148 | 7.0 | 13.0 | 0.00 | 0.00 | 0.00 | 55 | 1013.7 |
| 20260904205504 | 93 | 133 | 8.0 | 17.0 | 0.00 | 0.00 | 0.00 | 55 | 1013.6 |
| 20260904205004 | 93 | 128 | 8.0 | 17.0 | 0.00 | 0.00 | 0.00 | 53 | 1013.7 |
| 20260904204525 | 93 | 146 | 7.0 | 14.0 | 0.00 | 0.00 | 0.00 | 53 | 1013.8 |
| 20260904204004 | 94 | 143 | 7.0 | 13.0 | 0.00 | 0.00 | 0.00 | 51 | 1013.9 |
| 20260904203525 | 95 | 126 | 7.0 | 13.0 | 0.00 | 0.00 | 0.00 | 50 | 1013.9 |
| 20260904203004 | 95 | 132 | 7.0 | 14.0 | 0.00 | 0.00 | 0.00 | 49 | 1014.0 |
| 20260904202525 | 95 | 135 | 8.0 | 14.0 | 0.00 | 0.00 | 0.00 | 50 | 1013.9 |
| 20260904202003 | 95 | 125 | 8.0 | 16.0 | 0.00 | 0.00 | 0.00 | 49 | 1014.0 |
| 20260904201504 | 96 | 131 | 7.0 | 16.0 | 0.00 | 0.00 | 0.00 | 50 | 1014.0 |
| 20260904201004 | 96 | 142 | 6.0 | 16.0 | 0.00 | 0.00 | 0.00 | 49 | 1014.1 |
| 20260904200524 | 96 | 139 | 5.0 | 14.0 | 0.00 | 0.00 | 0.00 | 52 | 1014.1 |
| 20260904200004 | 95 | 131 | 5.0 | 14.0 | 0.00 | 0.00 | 0.00 | 53 | 1014.2 |
| 20260904195504 | 94 | 146 | 5.0 | 11.0 | 0.00 | 0.00 | 0.00 | 56 | 1014.2 |
| 20260904195004 | 93 | 168 | 4.0 | 10.0 | 0.00 | 0.00 | 0.00 | 57 | 1014.1 |
| 20260904194504 | 93 | 140 | 5.0 | 8.0 | 0.00 | 0.00 | 0.00 | 59 | 1014.2 |
| 20260904194004 | 92 | 120 | 5.0 | 12.0 | 0.00 | 0.00 | 0.00 | 59 | 1014.2 |
| 20260904193503 | 92 | 133 | 5.0 | 12.0 | 0.00 | 0.00 | 0.00 | 60 | 1014.3 |
| 20260904193004 | 92 | 142 | 5.0 | 16.0 | 0.00 | 0.00 | 0.00 | 62 | 1014.3 |
| 20260904192504 | 92 | 127 | 5.0 | 16.0 | 0.00 | 0.00 | 0.00 | 61 | 1014.4 |
| 20260904192004 | 92 | 134 | 5.0 | 12.0 | 0.00 | 0.00 | 0.00 | 61 | 1014.4 |
| 20260904191524 | 92 | 139 | 6.0 | 12.0 | 0.00 | 0.00 | 0.00 | 60 | 1014.5 |
| 20260904191004 | 92 | 138 | 6.0 | 14.0 | 0.00 | 0.00 | 0.00 | 60 | 1014.7 |
| 20260904190504 | 91 | 127 | 5.0 | 14.0 | 0.00 | 0.00 | 0.00 | 64 | 1014.8 |
| 20260904190024 | 91 | 136 | 5.0 | 11.0 | 0.00 | 0.00 | 0.00 | 65 | 1014.8 |
| 20260904185525 | 90 | 136 | 5.0 | 13.0 | 0.00 | 0.00 | 0.00 | 65 | 1014.9 |
| 20260904185025 | 90 | 129 | 5.0 | 13.0 | 0.00 | 0.00 | 0.00 | 66 | 1015.1 |
| 20260904184503 | 89 | 140 | 5.0 | 11.0 | 0.00 | 0.00 | 0.00 | 68 | 1015.1 |
| 20260904184004 | 89 | 128 | 4.0 | 13.0 | 0.00 | 0.00 | 0.00 | 68 | 1015.2 |
| 20260904183504 | 89 | 127 | 4.0 | 13.0 | 0.00 | 0.00 | 0.00 | 69 | 1015.3 |
| 20260904183024 | 89 | 117 | 5.0 | 10.0 | 0.00 | 0.00 | 0.00 | 69 | 1015.4 |
| 20260904182504 | 88 | 107 | 5.0 | 11.0 | 0.00 | 0.00 | 0.00 | 70 | 1015.4 |
| 20260904182003 | 88 | 122 | 5.0 | 11.0 | 0.00 | 0.00 | 0.00 | 70 | 1015.3 |
| 20260904181524 | 88 | 149 | 5.0 | 11.0 | 0.00 | 0.00 | 0.00 | 71 | 1015.3 |
| 20260904181003 | 88 | 148 | 5.0 | 8.0 | 0.00 | 0.00 | 0.00 | 71 | 1015.3 |
| 20260904180503 | 88 | 121 | 5.0 | 8.0 | 0.00 | 0.00 | 0.00 | 72 | 1015.3 |
| 20260904180004 | 87 | 128 | 4.0 | 8.0 | 0.00 | 0.00 | 0.00 | 73 | 1015.4 |
| 20260904175504 | 87 | 148 | 4.0 | 8.0 | 0.00 | 0.00 | 0.00 | 73 | 1015.5 |
| 20260904175003 | 87 | 145 | 5.0 | 10.0 | 0.00 | 0.00 | 0.00 | 73 | 1015.7 |
| 20260904174503 | 86 | 136 | 4.0 | 10.0 | 0.00 | 0.00 | 0.00 | 73 | 1015.7 |
| 20260904174004 | 86 | 130 | 4.0 | 7.0 | 0.00 | 0.00 | 0.00 | 75 | 1015.7 |
| 20260904173503 | 86 | 141 | 4.0 | 8.0 | 0.00 | 0.00 | 0.00 | 75 | 1015.7 |
| 20260904173003 | 86 | 159 | 5.0 | 11.0 | 0.00 | 0.00 | 0.00 | 75 | 1015.8 |
| 20260904172503 | 86 | 160 | 5.0 | 11.0 | 0.00 | 0.00 | 0.00 | 75 | 1015.9 |
| 20260904172004 | 85 | 153 | 5.0 | 10.0 | 0.00 | 0.00 | 0.00 | 76 | 1016.0 |
| 20260904171504 | 85 | 170 | 4.0 | 10.0 | 0.00 | 0.00 | 0.00 | 76 | 1015.9 |
| 20260904171024 | 85 | 186 | 4.0 | 12.0 | 0.00 | 0.00 | 0.00 | 76 | 1015.9 |
| 20260904170504 | 85 | 182 | 5.0 | 12.0 | 0.00 | 0.00 | 0.00 | 76 | 1015.9 |
| 20260904170004 | 85 | 171 | 6.0 | 14.0 | 0.00 | 0.00 | 0.00 | 76 | 1016.0 |
| 20260904165504 | 84 | 173 | 7.0 | 14.0 | 0.00 | 0.00 | 0.00 | 76 | 1015.9 |
| 20260904165024 | 84 | 181 | 6.0 | 13.0 | 0.00 | 0.00 | 0.00 | 77 | 1015.8 |
| 20260904164524 | 84 | 185 | 6.0 | 11.0 | 0.00 | 0.00 | 0.00 | 78 | 1015.9 |
| 20260904164004 | 84 | 183 | 7.0 | 13.0 | 0.00 | 0.00 | 0.00 | 78 | 1015.7 |
| 20260904163524 | 84 | 184 | 7.0 | 13.0 | 0.00 | 0.00 | 0.00 | 79 | 1015.7 |
| 20260904163004 | 84 | 187 | 6.0 | 13.0 | 0.00 | 0.00 | 0.00 | 80 | 1015.7 |
| 20260904162503 | 83 | 190 | 5.0 | 13.0 | 0.00 | 0.00 | 0.00 | 82 | 1015.6 |
| 20260904162004 | 83 | 192 | 7.0 | 16.0 | 0.00 | 0.00 | 0.00 | 82 | 1015.6 |
| 20260904161503 | 83 | 186 | 8.0 | 16.0 | 0.00 | 0.00 | 0.00 | 83 | 1015.6 |
| 20260904161003 | 82 | 180 | 7.0 | 14.0 | 0.00 | 0.00 | 0.00 | 83 | 1015.7 |
| 20260904160524 | 82 | 185 | 6.0 | 11.0 | 0.00 | 0.00 | 0.00 | 85 | 1015.6 |
| 20260904160003 | 82 | 196 | 5.0 | 11.0 | 0.00 | 0.00 | 0.00 | 86 | 1015.6 |
| 20260904155524 | 82 | 199 | 4.0 | 11.0 | 0.00 | 0.00 | 0.00 | 87 | 1015.6 |
| 20260904155003 | 82 | 196 | 4.0 | 8.0 | 0.00 | 0.00 | 0.00 | 87 | 1015.6 |
| 20260904154503 | 82 | 196 | 5.0 | 8.0 | 0.00 | 0.00 | 0.00 | 87 | 1015.6 |
| 20260904154003 | 82 | 196 | 4.0 | 8.0 | 0.00 | 0.00 | 0.00 | 87 | 1015.6 |
| 20260904153503 | 82 | 195 | 4.0 | 8.0 | 0.00 | 0.00 | 0.00 | 87 | 1015.6 |
| 20260904153003 | 82 | 200 | 5.0 | 8.0 | 0.00 | 0.00 | 0.00 | 86 | 1015.7 |
| 20260904152503 | 82 | 204 | 4.0 | 8.0 | 0.00 | 0.00 | 0.00 | 86 | 1015.6 |
| 20260904152003 | 82 | 204 | 4.0 | 6.0 | 0.00 | 0.00 | 0.00 | 86 | 1015.6 |
| 20260904151503 | 82 | 207 | 4.0 | 7.0 | 0.00 | 0.00 | 0.00 | 85 | 1015.7 |
| 20260904151003 | 82 | 199 | 5.0 | 8.0 | 0.00 | 0.00 | 0.00 | 84 | 1015.6 |
| 20260904150503 | 82 | 192 | 4.0 | 8.0 | 0.00 | 0.00 | 0.00 | 84 | 1015.6 |
| 20260904150025 | 82 | 184 | 4.0 | 8.0 | 0.00 | 0.00 | 0.00 | 85 | 1015.6 |
| 20260904145503 | 82 | 170 | 4.0 | 8.0 | 0.00 | 0.00 | 0.00 | 85 | 1015.6 |
| 20260904145003 | 82 | 171 | 4.0 | 6.0 | 0.00 | 0.00 | 0.00 | 85 | 1015.6 |
| 20260904144503 | 82 | 182 | 4.0 | 6.0 | 0.00 | 0.00 | 0.00 | 85 | 1015.7 |
| 20260904144003 | 82 | 180 | 5.0 | 10.0 | 0.00 | 0.00 | 0.00 | 85 | 1015.7 |
| 20260904143503 | 82 | 162 | 4.0 | 10.0 | 0.00 | 0.00 | 0.00 | 86 | 1015.6 |
| 20260904143003 | 82 | 155 | 4.0 | 7.0 | 0.00 | 0.00 | 0.00 | 86 | 1015.5 |
| 20260904142503 | 82 | 169 | 4.0 | 8.0 | 0.00 | 0.00 | 0.00 | 86 | 1015.6 |
| 20260904142003 | 82 | 181 | 4.0 | 8.0 | 0.00 | 0.00 | 0.00 | 87 | 1015.5 |
| 20260904141503 | 81 | 193 | 5.0 | 7.0 | 0.00 | 0.00 | 0.00 | 87 | 1015.5 |
| 20260904141003 | 81 | 189 | 5.0 | 7.0 | 0.00 | 0.00 | 0.00 | 87 | 1015.5 |
| 20260904140524 | 81 | 180 | 4.0 | 7.0 | 0.00 | 0.00 | 0.00 | 87 | 1015.4 |
| 20260904140024 | 81 | 169 | 4.0 | 7.0 | 0.00 | 0.00 | 0.00 | 88 | 1015.5 |
| 20260904135503 | 81 | 163 | 2.0 | 6.0 | 0.00 | 0.00 | 0.00 | 88 | 1015.5 |
| 20260904135003 | 81 | 181 | 2.0 | 7.0 | 0.00 | 0.00 | 0.00 | 89 | 1015.4 |
| 20260904134503 | 81 | 176 | 2.0 | 7.0 | 0.00 | 0.00 | 0.00 | 89 | 1015.3 |
| 20260904134003 | 81 | 131 | 2.0 | 6.0 | 0.00 | 0.00 | 0.00 | 89 | 1015.3 |
| 20260904133503 | 81 | 109 | 2.0 | 5.0 | 0.00 | 0.00 | 0.00 | 89 | 1015.2 |
| 20260904133003 | 81 | 143 | 2.0 | 6.0 | 0.00 | 0.00 | 0.00 | 89 | 1015.2 |
| 20260904132503 | 80 | 162 | 2.0 | 6.0 | 0.00 | 0.00 | 0.00 | 89 | 1015.2 |
| 20260904132003 | 80 | 142 | 2.0 | 5.0 | 0.00 | 0.00 | 0.00 | 89 | 1015.1 |
| 20260904131503 | 80 | 154 | 2.0 | 7.0 | 0.00 | 0.00 | 0.00 | 89 | 1015.1 |
| 20260904131024 | 80 | 149 | 4.0 | 7.0 | 0.00 | 0.00 | 0.00 | 89 | 1015.1 |
| 20260904130503 | 80 | 132 | 4.0 | 6.0 | 0.00 | 0.00 | 0.00 | 89 | 1015.1 |
| 20260904130003 | 80 | 140 | 4.0 | 8.0 | 0.00 | 0.00 | 0.00 | 89 | 1015.0 |
| 20260904125503 | 80 | 151 | 4.0 | 8.0 | 0.00 | 0.00 | 0.00 | 89 | 1015.0 |
| 20260904125003 | 80 | 149 | 4.0 | 8.0 | 0.00 | 0.00 | 0.00 | 89 | 1015.0 |